RH
59 51 50 46 43 40 37 34 31 28 26 22 17 13 11 12 12 12 7 8 9 8 10 11 10 9 10 16 18 20 16 21 26 28 33 29 29 28 25 29 29 29 29 34 48
68 59 53 46 45 39 36 34 32 29 26 24 18 13 10 13 18 7 9 9 8 8 11 9 8 10 12 15 16 16 13 20 23 25 29 27 27 28 28 32 37 36 37 44 45
72 67 60 52 46 40 36 33 31 30 26 25 20 13 9 15 15 8 9 8 8 8 12 11 9 12 14 14 18 20 19 30 30 25 24 26 27 25 26 30 34 40 40 41 41
68 68 65 60 49 40 35 32 30 29 27 24 21 14 10 23 12 10 10 8 8 9 12 11 12 13 15 17 20 25 27 26 26 25 25 26 25 27 24 26 26 31 37 41 38
55 63 63 63 56 44 34 30 27 27 26 24 20 14 16 12 10 13 10 10 9 11 11 11 11 14 16 20 21 26 26 25 24 24 23 25 26 26 29 26 28 34 39 37 35
48 50 58 59 57 50 34 28 25 25 25 23 19 13 16 13 12 15 13 11 10 12 13 11 12 15 19 22 20 25 24 25 24 25 25 25 26 24 31 31 34 36 35 35 37
47 43 46 53 54 52 36 25 22 23 24 20 16 12 14 8 13 13 13 10 9 9 12 16 15 14 19 24 21 23 26 25 26 26 26 22 27 24 29 32 35 35 35 35 39
52 42 38 44 50 51 36 21 20 22 21 18 14 20 10 9 12 12 8 8 10 13 15 16 16 17 19 20 22 24 24 29 26 24 24 23 20 22 29 32 34 34 35 37 40
57 50 37 36 46 52 31 20 21 20 20 16 21 18 9 10 11 9 9 7 11 14 16 16 16 20 20 22 24 26 22 26 28 22 24 24 21 22 27 30 32 34 35 37 41
58 53 44 33 45 53 27 22 21 25 26 21 21 18 9 10 12 11 9 9 10 13 14 15 16 19 19 18 15 22 22 24 24 24 23 24 24 24 28 29 30 32 35 38 42
58 54 48 33 50 49 30 31 20 24 23 13 10 12 9 12 12 9 10 10 10 12 13 16 16 18 18 17 17 14 17 19 18 20 24 24 21 21 26 29 30 32 34 37 39
54 57 49 35 59 40 40 37 42 48 34 21 22 20 17 15 12 8 9 10 12 12 14 16 16 12 15 18 18 17 18 19 23 22 24 21 22 18 23 28 26 29 32 35 38
55 58 48 40 62 45 44 42 50 53 38 19 18 16 13 13 11 9 8 10 11 12 14 13 14 16 18 18 18 18 18 19 18 24 23 26 24 21 19 22 24 25 28 32 38
58 59 45 50 55 51 40 49 56 56 26 15 15 14 12 10 11 8 9 10 13 12 13 14 13 19 19 19 18 20 16 17 22 22 21 25 15 14 17 24 26 26 28 33 37
63 61 46 72 70 40 47 53 63 57 25 13 16 14 10 9 9 9 9 10 13 15 16 14 14 19 20 18 18 18 17 18 21 20 22 23 23 11 23 24 23 26 27 32 37
70 64 51 78 69 55 57 48 55 29 27 15 14 13 12 10 9 8 10 11 12 13 13 13 10 10 12 13 13 16 17 18 19 18 19 14 18 10 13 18 21 20 25 33 38
75 66 68 80 46 52 56 42 27 32 15 15 15 14 12 12 11 9 12 13 12 16 17 13 12 10 10 13 13 12 14 17 18 18 15 16 20 12 17 21 23 24 26 33 39
78 65 78 88 87 64 58 30 33 22 19 14 15 14 15 13 12 11 11 12 14 14 13 16 18 12 10 12 12 12 12 17 20 14 13 19 15 14 22 25 26 25 26 34 41
71 81 80 90 78 62 41 36 24 23 21 23 14 15 15 14 14 13 13 10 9 13 15 16 16 11 11 11 11 15 15 13 18 24 18 10 11 20 24 25 29 29 33 40 42
68 62 64 74 59 60 37 32 30 26 27 23 18 18 18 16 15 14 13 10 11 11 12 14 19 12 10 9 11 13 12 16 15 20 18 12 13 10 19 21 29 37 40 43 43
62 45 80 69 62 39 33 31 34 26 27 25 22 20 21 22 18 16 13 11 12 13 13 13 16 16 12 13 12 13 14 14 15 17 16 16 11 18 19 19 25 32 38 43 45
66 44 82 76 41 42 43 43 46 30 24 25 25 24 25 25 23 19 18 16 17 15 15 15 18 19 15 12 10 10 12 14 17 19 20 22 16 18 24 24 27 31 39 42 44
52 64 75 78 39 41 50 39 38 32 28 29 28 29 25 26 28 25 24 20 21 19 19 18 18 21 18 16 14 12 11 13 15 19 18 19 16 21 24 25 29 35 40 42 46
45 71 73 62 51 38 38 36 38 32 32 31 30 28 26 27 27 28 26 22 23 19 47 25 19 19 18 15 14 17 13 12 15 17 15 18 14 19 19 22 34 37 41 44 49
55 58 55 70 57 48 36 35 34 31 27 24 23 26 26 31 31 28 26 26 21 30 25 26 24 21 17 19 18 15 13 13 14 13 17 13 15 13 22 26 34 39 43 48 50
67 60 59 60 49 48 55 43 34 28 24 23 25 21 27 32 29 32 27 27 25 22 24 29 24 28 24 22 20 20 15 12 13 12 14 14 14 22 34 34 40 44 46 49 51
70 66 49 71 61 58 52 42 36 36 36 27 28 31 29 32 33 34 36 35 31 29 29 31 31 28 26 29 25 27 21 17 14 14 14 18 16 26 34 33 38 42 43 46 49
Wind_Speed
11 12 15 16 17 18 19 20 21 21 23 23 24 25 24 20 7 3 1 4 6 11 8 2 5 6 5 4 2 1 5 7 9 15 12 18 11 6 4 12 4 2 10 22 22
11 13 14 16 18 19 20 20 21 21 23 24 24 25 24 18 5 3 1 6 9 10 4 3 11 6 4 3 2 3 4 5 7 8 18 19 13 13 9 12 8 14 21 24 20
11 13 14 16 18 19 20 21 21 21 22 24 24 25 23 12 6 3 3 7 8 8 2 2 6 3 4 3 4 4 2 9 7 5 19 16 13 8 13 9 15 23 22 22 17
12 13 15 17 18 20 21 22 22 22 22 23 23 24 18 3 3 4 4 7 6 3 1 5 6 5 4 4 3 8 6 6 11 12 14 15 13 13 2 7 17 20 23 20 16
12 14 15 17 18 20 21 22 23 22 22 22 22 20 8 5 2 1 4 7 3 3 2 4 8 5 8 8 10 14 10 10 10 11 12 12 11 8 10 14 21 21 19 17 14
12 14 15 17 19 21 21 23 23 23 22 21 19 13 5 8 1 3 6 3 4 11 3 3 5 10 11 6 5 10 14 14 12 12 10 12 9 6 10 17 19 18 17 15 15
12 14 15 17 19 21 22 23 24 23 23 20 13 6 5 8 2 7 5 2 3 3 8 9 8 1 9 13 14 19 16 12 10 9 5 10 9 9 19 19 19 17 15 13 14
12 13 14 16 18 21 23 23 23 24 21 13 6 1 6 4 6 7 2 3 5 9 16 15 17 13 5 19 9 9 9 9 9 10 6 7 3 11 21 21 19 18 15 13 13
12 13 13 15 17 21 22 22 23 19 9 3 1 4 4 5 4 2 2 3 10 10 11 9 8 8 14 14 10 7 7 9 11 13 7 13 0 11 20 20 19 17 16 13 12
12 12 13 14 15 19 22 20 11 5 3 1 2 5 5 1 4 4 2 3 5 13 8 4 4 7 11 11 7 11 9 11 12 16 15 14 16 9 18 20 19 18 16 15 14
11 11 12 13 14 17 20 6 4 5 4 5 1 4 2 4 2 5 2 6 7 11 9 8 8 12 17 15 5 3 8 9 10 7 14 18 16 14 17 19 20 19 18 16 14
9 9 10 10 12 13 8 4 4 3 7 6 10 9 10 4 3 6 4 7 9 12 7 6 13 9 9 5 6 7 7 6 3 5 13 10 18 15 18 22 21 20 19 18 16
9 8 8 8 10 5 6 6 5 5 5 4 6 6 4 10 5 6 6 4 8 10 14 12 3 7 13 11 9 7 8 4 6 7 11 6 16 17 15 19 18 18 17 18 18
8 7 7 6 3 3 4 8 5 6 4 5 6 3 6 5 6 2 3 3 5 10 8 9 5 12 13 15 13 12 5 5 8 9 5 8 6 7 8 13 16 18 18 18 18
8 7 5 3 5 1 3 12 1 2 4 3 4 2 4 9 4 4 1 5 6 5 6 4 8 10 11 8 11 1 4 4 7 7 5 9 7 2 3 9 14 17 18 18 17
8 7 5 3 2 3 10 7 3 4 4 1 0 4 8 10 3 5 5 3 2 4 1 3 1 3 1 6 3 14 8 6 4 5 8 5 8 3 3 2 2 9 15 17 18
8 6 4 2 1 7 9 3 4 4 2 4 2 1 9 8 8 6 10 10 8 8 9 5 6 4 8 9 9 7 8 5 6 5 4 4 6 8 3 1 2 2 10 16 18
8 6 4 4 7 9 3 4 6 1 4 5 3 2 5 5 6 7 7 10 8 8 3 10 7 11 8 5 7 15 9 6 7 5 1 3 7 1 5 2 2 2 8 15 17
7 4 2 1 3 4 4 6 2 1 4 6 4 2 4 3 3 7 11 12 7 12 9 6 5 4 1 3 3 6 8 4 5 1 5 7 5 6 3 3 4 7 11 15 17
6 6 3 1 2 3 5 4 2 1 5 3 2 5 3 1 4 4 6 1 11 10 8 5 5 3 5 4 3 5 8 4 5 5 7 4 7 3 7 8 8 9 11 13 16
7 4 2 5 4 4 7 6 3 1 4 5 4 1 4 4 4 3 1 1 3 3 7 7 7 6 5 10 12 6 9 5 4 4 6 7 3 3 6 4 7 9 11 15 17
5 4 3 6 6 2 7 4 0 3 2 4 2 7 5 5 2 3 5 5 9 5 5 4 5 10 11 2 5 10 12 14 7 7 3 4 5 5 3 3 2 10 12 14 16
4 4 2 3 6 7 3 6 1 2 3 2 2 6 4 4 1 4 7 4 6 4 4 3 5 10 6 4 5 8 13 13 8 2 10 7 2 5 4 4 4 10 13 14 16
3 4 3 3 2 8 10 8 9 4 5 3 4 2 2 2 3 3 7 6 7 3 4 3 6 12 13 11 3 5 13 16 15 9 11 13 7 8 6 3 7 10 13 15 16
1 2 2 6 8 6 9 7 9 7 10 5 7 7 8 5 8 3 5 12 6 2 1 2 8 7 9 6 5 8 9 14 18 20 9 8 9 4 3 3 8 11 14 16 16
3 3 3 3 9 10 6 9 10 11 12 7 10 7 6 8 11 15 13 7 5 2 2 2 7 3 6 5 6 10 10 11 16 15 14 8 9 4 5 7 10 12 14 15 16
2 1 3 2 8 9 9 10 12 6 3 4 2 6 6 4 5 6 6 7 5 4 3 2 3 4 14 3 4 9 15 15 9 9 11 10 3 10 7 7 10 12 13 14 15
Wind_Direction
331 335 335 337 337 339 340 342 347 351 347 352 348 347 344 337 335 203 187 335 327 334 336 157 151 139 169 98 83 216 200 174 166 174 142 149 145 118 131 140 111 95 146 136 147
326 328 331 333 334 333 335 338 341 344 344 346 346 344 342 334 311 178 3 339 335 342 309 214 165 176 136 122 68 277 249 133 137 111 153 162 153 142 148 141 115 118 115 134 148
320 324 327 329 329 330 332 333 336 338 340 341 345 342 340 330 247 128 3 349 343 342 359 93 166 219 134 97 32 28 35 129 128 142 147 150 140 143 143 156 154 148 145 151 153
307 317 323 327 326 326 328 329 331 332 336 337 342 341 339 312 221 131 17 359 348 335 173 151 179 188 130 111 65 114 80 106 123 132 142 152 136 142 93 116 145 147 149 153 157
298 307 315 321 324 324 324 325 325 327 331 333 338 343 350 251 237 191 335 355 5 291 269 191 199 165 123 112 90 103 107 106 125 134 125 139 144 129 111 125 140 146 153 157 153
293 299 307 315 321 323 321 321 322 323 325 326 332 340 313 255 337 327 332 327 60 53 103 205 140 109 90 75 11 120 116 120 136 128 139 142 142 162 140 144 149 159 162 159 155
292 298 304 309 317 321 319 318 319 319 317 319 324 334 264 263 305 313 306 340 36 32 92 92 111 242 117 97 119 121 114 123 141 147 140 147 181 205 156 165 166 171 167 161 155
293 300 305 308 314 319 318 316 316 313 310 309 309 263 274 262 294 295 224 131 96 83 100 97 102 88 97 126 132 130 152 164 172 180 152 209 153 159 166 172 179 177 172 168 162
286 299 309 311 314 320 319 317 312 307 303 308 142 239 265 296 245 296 282 160 125 120 104 106 82 100 144 140 138 199 190 211 175 203 168 215 84 162 177 185 186 186 181 176 160
282 294 309 315 320 325 323 319 314 303 267 318 241 249 227 111 326 314 241 185 156 145 146 147 120 151 175 196 223 188 200 199 199 193 209 209 243 174 189 195 196 193 189 184 178
281 292 308 318 323 332 338 346 270 202 247 273 83 295 288 332 236 198 186 182 162 194 191 186 189 204 192 213 328 228 214 199 199 162 202 228 245 195 199 207 203 201 196 193 186
276 285 301 315 325 339 357 58 41 325 302 242 252 263 264 293 258 201 190 216 204 208 168 185 227 221 194 191 208 196 196 198 130 178 212 237 255 246 201 213 212 206 202 198 184
268 274 295 310 328 6 55 61 338 164 263 252 228 246 224 191 225 204 205 201 220 208 207 229 80 168 174 183 185 206 232 199 300 165 213 284 263 245 214 217 218 217 210 202 193
256 263 285 305 321 336 95 351 332 188 270 178 197 196 179 210 223 203 202 255 196 235 211 239 140 181 194 213 218 241 203 223 174 190 280 199 289 249 233 210 217 215 208 203 194
241 247 268 303 314 262 339 338 140 219 245 66 144 59 158 200 119 147 148 198 235 169 221 142 179 186 201 212 198 288 144 170 194 230 267 193 260 235 143 228 226 212 209 204 193
225 234 252 289 273 319 330 340 186 231 238 84 121 178 171 196 164 131 173 113 72 163 168 65 103 222 69 89 220 139 130 131 186 241 254 288 242 261 190 109 103 206 200 197 189
209 222 221 252 342 327 332 209 188 238 3 15 353 285 213 186 194 206 189 190 207 198 203 171 168 136 167 117 139 199 196 251 229 211 280 150 221 281 140 89 333 199 185 187 181
196 198 239 242 306 326 299 190 214 90 283 350 329 269 216 184 212 201 209 210 212 228 231 217 200 182 170 239 210 207 235 251 276 259 304 178 241 102 108 45 334 211 167 170 174
177 192 189 281 341 327 224 206 216 24 346 330 307 256 194 200 312 223 235 243 236 211 230 216 213 141 174 178 232 172 220 343 272 215 263 252 228 156 171 135 122 134 153 167 172
165 173 131 115 100 260 203 190 163 28 335 305 332 12 23 37 223 206 203 8 236 222 237 216 231 206 136 172 115 258 133 191 216 263 261 203 265 287 164 164 159 163 165 166 169
176 182 21 145 131 201 204 182 173 63 355 12 24 48 51 16 319 252 323 123 340 222 247 217 241 142 176 209 213 174 207 223 282 270 276 286 277 87 127 143 173 165 167 170 170
169 175 357 161 174 219 198 184 77 204 7 36 59 42 44 11 342 309 326 349 359 299 228 201 265 234 223 94 291 262 245 213 236 213 236 300 287 145 123 89 148 156 167 168 167
136 85 80 311 193 189 151 177 232 212 216 9 114 23 19 32 215 30 359 11 359 310 331 191 226 242 210 193 195 231 216 226 245 255 228 257 268 152 143 112 126 155 162 162 159
177 131 119 237 17 187 177 190 207 212 273 277 292 289 315 334 12 346 2 359 322 275 13 297 257 253 262 308 26 210 217 216 218 238 243 238 247 188 204 193 155 155 159 159 164
226 132 122 179 195 179 190 181 187 205 220 237 231 252 276 275 304 277 324 338 348 29 304 275 267 263 265 271 257 272 252 219 220 232 226 268 231 142 128 156 162 154 155 159 165
152 156 177 118 163 180 178 192 197 223 239 216 238 238 270 274 270 290 308 302 319 4 319 300 270 303 273 266 272 260 253 245 236 249 253 253 260 97 107 125 147 157 162 167 169
116 117 268 168 159 178 207 198 202 150 182 238 259 245 233 351 346 333 294 287 300 309 317 281 288 264 270 299 284 265 242 228 224 226 239 237 282 153 154 160 160 162 170 169 167